Temperature
22 22 22 21 21 21 21 20 20 20 20 20 19 19 19 19 19 19 19 19 19 19 19 18 18 18 18 18 18 18 18 18 18 18 18 18 18 19 19 19 19 18 18
22 21 21 21 21 21 21 20 20 20 20 20 20 19 19 19 19 19 19 19 19 19 19 19 18 18 18 18 18 18 18 18 18 18 18 18 18 18 19 18 18 18 18
22 21 21 21 21 21 21 20 20 20 20 20 19 19 19 19 19 19 19 19 19 19 19 19 18 18 18 18 18 18 18 18 18 18 17 17 17 18 18 18 18 18 18
22 22 22 21 21 21 21 21 20 20 20 20 20 19 19 19 19 19 19 19 19 19 19 19 18 18 18 18 18 18 18 18 18 18 18 18 18 17 17 18 18 18 18
23 22 22 22 21 21 21 21 20 20 20 20 20 19 19 19 19 19 19 19 18 18 18 19 18 18 18 18 18 18 18 18 18 18 18 18 18 18 17 18 18 18 18
23 22 22 22 21 21 21 20 20 20 20 20 19 19 19 19 19 19 19 18 18 18 18 18 18 18 18 18 18 18 18 18 18 18 18 17 17 18 17 17 18 18 18
23 22 22 21 21 21 21 20 20 20 20 20 19 19 19 19 19 19 19 19 19 18 18 18 18 18 18 18 18 18 18 18 18 18 18 18 17 17 17 17 17 17 18
23 23 22 22 21 21 21 21 20 20 20 20 19 19 19 19 19 19 19 19 19 18 18 18 18 18 18 18 18 18 18 18 18 18 18 18 18 17 17 17 17 17 17
23 22 22 21 21 21 21 21 21 20 20 20 19 19 19 19 19 19 18 18 18 18 18 18 18 18 18 18 18 18 18 18 18 17 17 17 17 17 17 17 17 17 17
22 22 22 21 21 21 21 20 20 20 20 19 19 19 19 19 19 19 19 18 18 18 18 18 18 18 18 18 18 18 17 17 17 17 17 17 17 17 17 17 17 17 17
22 22 21 21 21 21 20 20 20 20 20 20 19 19 19 19 19 18 18 18 18 18 18 18 18 18 18 17 17 17 17 17 17 17 17 17 17 17 17 17 17 17 17
22 22 21 21 21 20 20 20 20 20 20 20 19 19 19 19 18 18 18 18 18 18 18 18 17 17 17 17 17 17 17 17 17 17 17 17 17 16 16 16 16 16 16
21 21 21 21 21 20 20 20 20 20 20 19 19 19 18 18 18 18 18 18 18 18 17 17 17 17 17 17 17 17 17 17 17 17 17 16 16 16 16 16 16 16 16
21 21 21 20 20 20 20 20 20 20 19 19 19 18 18 18 18 18 17 17 17 17 17 17 17 17 17 17 17 17 16 16 16 16 16 16 16 16 16 16 16 16 16
20 20 20 20 20 20 20 20 19 19 19 19 18 18 18 18 17 17 17 17 17 17 17 17 17 16 16 16 16 16 16 16 16 16 16 16 16 16 15 15 15 15 15
20 20 20 20 19 20 19 19 19 19 19 18 18 18 18 17 17 17 17 17 16 16 16 16 16 16 16 16 16 16 15 15 15 15 15 15 15 15 15 15 15 15 15
20 20 20 19 19 19 19 19 18 18 18 18 18 18 17 17 17 17 16 16 16 16 16 16 16 16 16 15 15 15 15 15 15 15 15 15 15 15 15 15 15 15 15
20 20 20 20 19 19 19 18 18 18 18 17 17 17 17 17 16 16 16 16 16 16 16 16 15 15 15 15 15 15 15 15 15 15 15 15 15 14 14 15 15 15 15
20 20 20 19 19 19 18 18 18 17 17 17 17 17 16 16 16 16 16 16 16 16 15 15 15 15 15 15 15 15 15 15 15 15 14 14 14 14 14 14 14 14 14
20 20 19 19 19 18 18 18 17 17 17 17 16 16 16 16 16 16 16 16 15 15 15 15 15 15 15 15 15 15 14 14 14 14 14 14 14 14 14 14 14 14 14
19 19 19 19 18 18 18 17 17 17 17 16 16 16 16 16 16 16 15 15 15 15 15 15 15 15 15 15 15 14 14 14 14 14 14 14 14 14 14 13 13 13 13
19 19 18 18 18 17 17 17 17 17 16 16 16 16 16 15 15 15 15 15 15 15 14 14 14 14 14 14 14 14 14 14 14 14 14 14 13 13 13 13 13 13 13
18 18 18 17 17 17 17 16 16 16 16 16 15 15 15 15 15 15 15 15 14 14 14 14 14 14 14 14 14 14 14 14 14 14 13 13 13 13 13 13 13 12 12
17 17 17 17 16 16 16 16 16 15 15 15 15 15 15 15 15 14 14 14 14 14 14 13 13 13 13 13 13 13 13 13 13 13 13 13 13 13 12 12 12 12 12
16 16 16 16 16 15 15 15 15 15 15 15 15 15 14 14 14 14 14 14 14 14 14 14 13 13 13 13 13 13 13 13 13 12 12 12 12 12 12 12 12 11 11
16 16 16 15 15 15 15 15 15 15 15 14 14 14 14 14 14 14 14 14 14 13 13 13 13 13 13 13 13 13 12 12 12 12 12 12 11 11 11 11 11 11 11
Wind_Speed
9 10 10 10 9 7 6 5 5 4 3 2 2 2 2 2 3 4 6 7 7 7 5 4 3 3 4 4 4 2 2 2 1 0 2 3 3 4 4 4 4 5 7
10 10 10 9 9 8 7 6 5 5 4 3 2 2 2 2 3 3 4 6 7 7 6 5 4 4 4 4 4 3 2 2 2 2 0 2 3 3 4 3 4 5 5
14 13 12 11 10 9 8 7 6 5 4 3 2 2 1 0 1 2 2 4 6 6 6 5 5 5 5 4 5 4 4 4 3 3 3 2 3 3 3 4 4 4 4
13 12 12 12 11 10 9 7 6 5 4 4 4 4 3 3 3 3 2 3 5 6 6 6 5 5 4 4 5 5 4 4 3 2 3 3 3 2 2 3 3 4 4
14 14 14 13 12 11 9 7 6 5 4 4 4 4 2 2 1 1 1 2 3 4 5 5 5 5 4 5 5 4 4 4 4 3 2 2 2 3 3 3 3 3 4
12 11 11 10 10 10 8 8 7 6 5 5 4 4 4 3 2 1 1 1 1 2 2 3 4 4 4 5 5 5 5 5 4 4 3 3 3 3 3 4 3 4 4
11 10 11 10 10 11 10 9 8 7 5 5 4 4 4 4 3 2 2 2 1 2 2 2 3 3 4 5 5 4 5 5 5 5 4 4 5 4 4 3 3 3 3
9 10 12 12 12 12 11 10 9 7 6 5 4 3 3 3 2 2 2 2 3 3 3 2 3 3 3 3 4 4 4 4 5 6 5 4 4 4 4 4 3 2 3
10 9 9 9 10 11 11 11 10 7 6 5 4 3 3 3 2 2 2 2 2 2 2 3 3 2 3 3 3 3 4 4 4 4 4 3 3 3 3 4 4 4 4
8 8 8 8 8 9 9 9 8 8 7 7 6 5 4 3 3 2 2 2 2 2 2 2 3 3 3 3 2 2 3 3 3 3 3 3 3 2 2 3 3 4 4
9 8 7 7 7 7 8 8 8 7 7 6 5 5 4 3 3 3 3 3 3 3 3 3 3 3 3 3 3 3 3 3 3 3 3 4 3 3 3 2 2 3 4
7 6 6 6 7 7 7 7 8 8 7 6 5 5 4 3 4 4 4 4 3 3 4 3 3 3 3 3 4 4 4 4 4 4 3 4 3 3 3 3 3 3 3
7 6 5 6 6 6 6 6 7 7 7 6 5 4 3 3 3 4 3 3 3 3 3 3 4 4 4 4 4 4 4 4 5 4 4 5 4 4 4 4 3 3 3
7 6 5 5 6 6 5 5 4 5 5 5 5 4 4 4 4 3 3 3 3 3 3 4 4 4 3 4 4 4 4 4 4 4 5 5 5 6 5 4 4 3 2
6 6 6 4 4 4 4 4 3 3 5 5 5 5 4 4 3 3 3 3 3 4 3 3 3 4 4 4 4 4 4 4 4 5 5 5 6 7 5 4 4 3 3
8 7 6 5 5 5 4 3 3 3 4 4 4 4 4 3 3 3 3 2 3 3 3 3 3 4 5 5 4 4 4 4 5 5 5 4 5 6 6 5 6 5 5
7 7 6 7 6 5 5 4 3 3 4 4 3 3 2 3 3 3 2 2 2 2 2 3 3 4 5 5 4 4 4 4 5 4 4 4 4 4 3 5 5 6 7
7 7 7 6 5 4 3 2 3 3 3 3 2 2 2 2 2 2 2 3 2 2 2 3 3 3 4 4 4 4 3 4 4 4 5 5 4 4 4 3 4 4 4
6 5 6 6 5 5 4 3 3 3 2 2 2 3 3 3 3 3 3 3 2 2 2 2 2 2 3 4 3 3 2 3 4 4 4 4 4 5 4 3 3 4 4
5 4 5 5 5 5 5 5 3 3 3 3 3 3 3 3 4 4 3 2 2 3 2 2 2 2 3 3 3 2 1 2 3 3 3 4 4 5 4 4 4 4 4
6 6 5 5 5 5 5 4 3 3 4 3 3 3 3 3 3 3 3 2 2 1 1 2 2 2 2 2 2 2 1 2 3 3 3 4 5 4 4 4 4 6 4
5 5 6 4 4 4 5 3 3 4 2 2 2 2 2 3 3 3 2 2 2 2 1 1 2 2 2 2 3 3 3 2 2 3 3 3 5 4 4 4 4 4 2
4 4 6 5 3 3 4 4 3 2 1 1 1 1 1 1 2 3 3 2 2 2 1 1 2 3 3 3 4 3 3 3 2 3 4 4 4 2 2 3 3 2 1
4 4 5 5 3 2 3 3 3 2 2 2 2 1 1 1 1 2 2 2 2 3 2 2 2 2 2 2 3 3 2 3 2 2 3 3 2 1 1 2 2 1 2
3 3 4 4 3 2 2 2 2 2 2 2 2 2 2 2 2 2 2 3 4 5 5 4 3 2 3 4 4 2 2 2 2 1 1 1 2 2 2 2 2 1 1
3 3 3 3 2 1 2 2 2 2 3 2 2 2 2 2 2 2 1 2 3 4 6 6 5 4 4 4 4 4 4 4 2 1 0 1 1 1 2 2 2 2 1
Wind_Direction
161 155 155 156 152 151 154 163 159 164 152 151 159 162 185 196 193 203 200 198 198 196 193 191 192 192 191 200 196 187 194 214 189 107 307 295 266 250 242 237 224 222 222
156 161 160 158 160 163 165 169 170 169 171 178 182 185 184 194 196 200 198 201 198 197 198 191 196 193 192 201 201 187 198 228 195 166 159 320 316 294 262 246 229 230 220
166 169 168 169 167 170 172 172 175 172 176 170 144 135 104 57 167 195 202 211 203 202 203 197 191 194 193 200 206 198 197 218 235 195 179 190 241 284 283 256 243 232 225
169 170 171 174 173 176 176 172 173 172 174 165 150 151 168 187 204 196 206 216 207 207 209 202 195 195 191 193 205 201 196 193 229 242 222 206 191 200 272 289 262 247 235
174 172 176 177 174 175 175 172 170 170 173 170 165 160 166 180 173 154 180 222 221 216 212 197 191 193 196 198 202 201 196 194 208 222 231 234 228 205 208 263 283 279 251
173 173 174 168 169 172 170 168 168 174 176 173 172 172 171 163 149 165 189 230 240 225 214 198 198 201 202 201 202 204 206 212 216 222 218 211 214 215 207 232 259 269 270
170 170 169 170 172 173 173 172 171 178 179 176 181 183 184 170 168 184 192 203 216 215 230 215 201 204 207 203 200 206 214 217 221 224 230 229 226 208 200 213 244 258 267
168 176 179 179 178 176 173 171 173 176 176 178 186 182 180 178 184 187 191 199 214 220 224 215 213 216 210 205 203 213 227 224 227 237 237 242 244 218 206 203 208 258 275
164 167 174 178 176 174 173 173 169 171 176 180 177 182 185 184 189 197 202 219 232 228 227 220 225 227 218 211 201 217 234 230 230 238 241 242 254 236 218 210 201 201 250
153 163 168 173 176 174 172 169 167 172 177 184 188 191 198 196 192 186 209 228 241 245 250 244 228 226 219 215 205 224 236 229 240 237 240 249 253 255 246 230 219 206 215
156 162 168 173 170 164 166 171 174 172 180 187 188 189 196 199 195 204 222 229 235 235 241 241 230 227 229 224 218 228 228 231 248 250 239 250 252 253 252 241 229 225 213
150 152 156 154 156 161 165 173 180 182 188 188 186 195 196 195 200 219 232 232 232 231 232 236 234 237 238 230 220 229 235 231 242 247 243 251 256 260 255 247 245 242 224
131 136 140 144 152 155 162 169 179 185 186 183 182 194 197 198 209 226 234 231 231 238 237 229 230 238 241 233 226 225 231 235 237 238 240 248 242 251 256 247 250 251 248
140 143 146 153 155 152 152 162 173 175 173 173 176 189 206 205 209 221 227 227 227 233 239 232 230 236 247 240 229 224 230 242 248 244 241 242 234 240 246 247 243 243 246
145 147 148 153 148 141 136 142 153 167 173 171 174 189 208 210 202 207 218 220 225 235 240 245 252 247 247 243 229 224 231 237 254 257 252 248 247 246 244 246 236 230 234
154 153 149 145 145 142 138 144 150 163 157 166 172 185 195 193 195 205 207 215 227 230 229 237 245 256 263 263 245 231 232 233 239 251 263 262 256 254 251 248 239 220 219
157 160 162 158 163 165 153 157 171 161 155 160 165 170 181 194 207 202 190 208 227 228 235 240 243 252 261 263 256 249 243 243 239 237 249 268 269 264 248 252 255 247 237
156 164 160 153 154 151 142 164 154 133 143 154 169 183 184 200 210 197 205 217 214 223 237 248 252 255 261 256 263 267 257 253 248 239 234 238 253 253 239 230 239 249 253
160 163 161 155 149 146 147 140 123 124 144 178 206 208 198 201 210 211 217 218 213 230 241 254 246 248 270 263 265 276 260 257 263 261 253 241 239 250 227 211 226 256 274
149 160 150 139 145 156 147 133 143 151 184 209 225 218 204 205 216 216 218 219 211 230 245 265 258 247 268 273 265 261 226 248 273 282 273 257 244 241 213 209 213 237 257
148 144 132 139 156 154 138 140 166 209 214 205 217 217 213 215 213 206 209 205 208 227 252 263 280 272 275 288 278 267 234 248 264 270 271 266 261 253 236 222 217 230 238
124 128 129 137 140 140 139 155 212 234 220 199 212 229 227 227 210 194 199 189 183 193 238 249 293 308 300 299 295 287 276 269 245 262 270 268 264 256 242 230 240 246 236
122 123 128 125 122 139 148 172 226 232 194 177 221 246 234 227 188 177 185 181 170 180 212 226 262 296 310 317 313 301 293 293 275 279 289 291 275 253 254 253 257 249 219
126 120 120 126 138 156 160 185 208 192 164 191 224 240 215 228 223 207 197 188 193 190 192 204 227 280 304 317 326 324 317 316 314 315 315 314 310 326 318 312 297 266 230
125 131 137 141 162 177 187 209 202 172 173 197 213 221 225 216 215 228 224 213 223 208 198 204 201 219 267 279 280 271 286 292 279 289 346 7 11 5 349 335 315 307 317
126 124 130 142 167 182 223 242 225 176 172 195 215 217 226 217 202 203 257 277 244 228 208 208 207 225 239 271 289 292 291 289 257 150 192 268 279 272 283 287 300 321 320
Height
1517 1518 1520 1521 1523 1525 1526 1527 1528 1529 1530 1531 1531 1532 1533 1534 1534 1535 1536 1537 1537 1538 1539 1540 1540 1541 1541 1542 1543 1544 1545 1546 1547 1547 1546 1547 1547 1547 1548 1548 1548 1548 1549
1516 1517 1519 1521 1522 1523 1524 1526 1527 1528 1529 1530 1531 1531 1532 1532 1533 1534 1535 1535 1536 1537 1538 1538 1539 1539 1540 1540 1542 1543 1544 1545 1545 1545 1545 1545 1546 1545 1545 1545 1546 1546 1546
1512 1515 1517 1519 1521 1522 1523 1525 1526 1527 1528 1529 1530 1530 1531 1531 1531 1532 1533 1534 1535 1535 1536 1536 1537 1537 1538 1539 1540 1541 1542 1542 1544 1544 1544 1544 1543 1543 1543 1543 1543 1543 1543
1511 1513 1515 1517 1519 1521 1523 1524 1525 1526 1527 1528 1528 1528 1528 1528 1529 1530 1531 1532 1533 1533 1534 1535 1535 1536 1536 1536 1537 1539 1540 1540 1541 1541 1542 1542 1541 1541 1540 1540 1540 1540 1540
1508 1510 1512 1514 1517 1519 1521 1523 1524 1525 1526 1527 1527 1527 1527 1528 1528 1529 1530 1531 1531 1531 1532 1532 1533 1533 1534 1534 1535 1536 1537 1538 1538 1538 1538 1538 1538 1538 1538 1536 1536 1537 1537
1506 1509 1511 1513 1515 1517 1519 1520 1522 1523 1524 1525 1526 1526 1527 1527 1527 1527 1528 1529 1529 1529 1529 1530 1530 1531 1532 1532 1533 1534 1535 1535 1535 1535 1535 1535 1535 1534 1534 1533 1533 1533 1533
1504 1506 1509 1511 1513 1515 1516 1518 1520 1521 1523 1524 1524 1525 1526 1526 1526 1526 1527 1527 1527 1527 1527 1528 1528 1528 1529 1530 1531 1531 1532 1532 1532 1532 1532 1532 1531 1531 1531 1531 1530 1530 1530
1502 1504 1506 1507 1509 1511 1513 1515 1517 1519 1521 1522 1522 1523 1524 1525 1525 1525 1526 1525 1525 1525 1525 1526 1526 1526 1527 1528 1528 1529 1529 1529 1529 1529 1529 1529 1528 1527 1528 1528 1528 1527 1526
1499 1502 1504 1506 1507 1509 1511 1513 1515 1517 1518 1520 1520 1521 1522 1522 1523 1523 1524 1524 1524 1523 1523 1524 1524 1524 1525 1525 1526 1526 1526 1526 1526 1526 1526 1525 1525 1524 1524 1525 1525 1525 1523
1497 1500 1502 1504 1506 1507 1509 1511 1513 1515 1516 1517 1518 1519 1520 1521 1521 1521 1522 1522 1522 1522 1521 1521 1522 1522 1522 1523 1523 1523 1523 1523 1523 1523 1523 1522 1522 1522 1521 1521 1521 1521 1521
1495 1498 1500 1502 1504 1506 1508 1510 1512 1513 1515 1515 1516 1517 1517 1518 1519 1519 1519 1519 1519 1519 1519 1519 1519 1519 1520 1520 1520 1519 1520 1520 1520 1520 1519 1519 1519 1519 1518 1518 1517 1517 1517
1495 1497 1499 1501 1503 1504 1506 1508 1510 1511 1512 1513 1514 1515 1515 1516 1516 1516 1517 1517 1517 1517 1517 1516 1516 1516 1516 1517 1516 1516 1516 1516 1516 1516 1515 1515 1515 1515 1515 1514 1514 1513 1513
1494 1496 1498 1500 1502 1504 1505 1506 1508 1509 1511 1512 1512 1513 1514 1514 1514 1514 1514 1514 1514 1514 1514 1513 1513 1513 1513 1513 1513 1513 1513 1512 1512 1512 1511 1511 1511 1510 1510 1510 1510 1509 1509
1494 1496 1497 1499 1500 1502 1503 1505 1506 1508 1509 1510 1510 1511 1511 1512 1512 1512 1512 1512 1511 1511 1511 1510 1510 1510 1510 1510 1509 1509 1509 1508 1508 1508 1507 1507 1507 1506 1506 1505 1505 1505 1505
1493 1495 1496 1498 1499 1501 1502 1504 1505 1506 1507 1507 1508 1508 1509 1509 1510 1510 1509 1509 1508 1508 1508 1507 1507 1507 1506 1505 1505 1505 1505 1504 1504 1504 1503 1502 1502 1502 1502 1501 1501 1500 1500
1492 1494 1496 1497 1498 1500 1502 1503 1503 1504 1505 1505 1505 1506 1507 1507 1507 1507 1507 1507 1506 1506 1505 1504 1503 1503 1502 1502 1501 1501 1501 1500 1499 1499 1499 1498 1498 1498 1498 1497 1497 1496 1496
1490 1492 1494 1495 1497 1498 1499 1501 1502 1502 1501 1502 1503 1503 1504 1504 1504 1504 1504 1504 1504 1503 1502 1502 1500 1499 1499 1498 1497 1497 1497 1496 1495 1495 1494 1494 1494 1493 1493 1492 1492 1492 1492
1489 1491 1492 1493 1495 1497 1498 1499 1499 1499 1500 1500 1500 1501 1501 1501 1502 1502 1502 1501 1501 1500 1500 1499 1498 1497 1496 1495 1494 1493 1493 1492 1491 1491 1490 1489 1489 1489 1489 1488 1487 1487 1487
1487 1489 1491 1492 1493 1495 1496 1496 1495 1497 1498 1498 1498 1498 1499 1499 1499 1499 1499 1498 1498 1497 1497 1496 1495 1493 1493 1492 1491 1490 1489 1488 1487 1487 1486 1486 1485 1485 1484 1484 1483 1483 1482
1486 1488 1489 1490 1492 1493 1494 1494 1495 1495 1495 1495 1496 1496 1496 1496 1496 1496 1496 1496 1496 1495 1494 1493 1492 1491 1490 1489 1488 1487 1486 1484 1483 1483 1482 1482 1481 1481 1480 1479 1478 1478 1477
1484 1486 1487 1489 1490 1491 1492 1492 1493 1493 1493 1493 1494 1494 1494 1493 1493 1494 1493 1493 1493 1492 1491 1490 1489 1488 1487 1486 1485 1484 1483 1481 1480 1479 1478 1478 1477 1477 1476 1475 1475 1474 1474
1482 1484 1485 1487 1488 1489 1490 1490 1490 1491 1491 1491 1491 1491 1490 1490 1491 1490 1490 1490 1490 1489 1488 1487 1486 1485 1485 1484 1482 1481 1480 1479 1478 1476 1475 1474 1473 1472 1472 1471 1470 1470 1470
1481 1482 1483 1484 1486 1487 1488 1487 1488 1488 1488 1488 1488 1488 1487 1487 1487 1487 1486 1486 1486 1486 1485 1484 1483 1482 1482 1481 1479 1478 1477 1476 1475 1474 1472 1471 1470 1469 1468 1467 1466 1466 1465
1480 1481 1482 1483 1484 1485 1486 1486 1486 1486 1486 1486 1485 1485 1485 1484 1484 1484 1483 1483 1482 1482 1481 1480 1480 1479 1478 1477 1476 1475 1474 1473 1472 1471 1469 1469 1467 1466 1465 1463 1462 1462 1461
1479 1480 1481 1481 1482 1483 1484 1484 1484 1484 1483 1483 1482 1482 1482 1481 1481 1480 1480 1479 1479 1479 1478 1477 1477 1476 1475 1474 1474 1472 1471 1470 1469 1468 1467 1465 1464 1462 1461 1460 1459 1458 1458
1478 1479 1479 1480 1481 1481 1481 1482 1482 1481 1481 1480 1480 1479 1479 1478 1478 1477 1477 1477 1477 1476 1475 1475 1474 1473 1473 1472 1471 1470 1469 1468 1467 1465 1463 1462 1461 1460 1459 1458 1457 1455 1454